QPF
0.01 0.00 0.00 0.01 0.01 0.00 0.00 0.01 0.01 0.01 0.01 0.01 0.02 0.03 0.03 0.02 0.02 0.02 0.04 0.08 0.09 0.10 0.09 0.08 0.08 0.08 0.07 0.07 0.07 0.06 0.06 0.07 0.07 0.06 0.05 0.05 0.05 0.06 0.09 0.09 0.07 0.06 0.05
0.01 0.00 0.01 0.00 0.00 0.00 0.01 0.00 0.01 0.01 0.01 0.01 0.04 0.06 0.05 0.02 0.02 0.02 0.01 0.03 0.07 0.09 0.11 0.10 0.09 0.09 0.10 0.09 0.08 0.06 0.06 0.06 0.06 0.05 0.05 0.06 0.07 0.07 0.08 0.08 0.07 0.06 0.05
0.00 0.00 0.00 0.00 0.00 0.01 0.01 0.00 0.01 0.01 0.00 0.01 0.04 0.06 0.05 0.03 0.02 0.01 0.01 0.02 0.03 0.08 0.10 0.11 0.11 0.11 0.10 0.09 0.07 0.05 0.06 0.06 0.06 0.07 0.06 0.07 0.08 0.07 0.06 0.06 0.06 0.05 0.04
0.00 0.00 0.00 0.00 0.00 0.01 0.00 0.00 0.01 0.00 0.01 0.01 0.03 0.06 0.06 0.02 0.02 0.01 0.01 0.01 0.01 0.02 0.05 0.10 0.14 0.12 0.08 0.09 0.09 0.08 0.07 0.07 0.07 0.07 0.06 0.06 0.06 0.06 0.05 0.06 0.05 0.03 0.02
0.00 0.00 0.00 0.00 0.01 0.00 0.01 0.01 0.01 0.01 0.01 0.02 0.03 0.04 0.06 0.03 0.02 0.01 0.00 0.00 0.01 0.02 0.04 0.07 0.11 0.14 0.11 0.08 0.08 0.08 0.09 0.09 0.09 0.09 0.08 0.08 0.06 0.06 0.06 0.05 0.05 0.04 0.03
0.00 0.00 0.00 0.00 0.00 0.00 0.01 0.01 0.01 0.00 0.01 0.02 0.04 0.03 0.04 0.03 0.01 0.00 0.00 0.01 0.02 0.02 0.04 0.07 0.08 0.12 0.16 0.12 0.08 0.07 0.08 0.09 0.10 0.10 0.09 0.08 0.06 0.06 0.05 0.03 0.05 0.04 0.04
0.00 0.00 0.00 0.00 0.00 0.00 0.01 0.01 0.01 0.01 0.01 0.02 0.04 0.06 0.04 0.03 0.02 0.01 0.01 0.02 0.02 0.05 0.08 0.08 0.06 0.06 0.09 0.13 0.11 0.09 0.09 0.10 0.10 0.11 0.11 0.07 0.06 0.05 0.05 0.04 0.03 0.03 0.04
0.00 0.00 0.01 0.00 0.00 0.00 0.01 0.02 0.02 0.02 0.01 0.02 0.05 0.09 0.05 0.03 0.03 0.03 0.04 0.03 0.02 0.02 0.04 0.07 0.07 0.07 0.07 0.08 0.11 0.10 0.11 0.12 0.12 0.11 0.09 0.06 0.05 0.04 0.04 0.03 0.03 0.03 0.03
0.01 0.00 0.01 0.00 0.00 0.00 0.01 0.02 0.02 0.02 0.01 0.02 0.05 0.07 0.04 0.04 0.05 0.07 0.08 0.04 0.03 0.02 0.04 0.06 0.06 0.07 0.08 0.08 0.09 0.09 0.09 0.10 0.12 0.09 0.07 0.05 0.04 0.04 0.04 0.03 0.02 0.03 0.03
0.01 0.00 0.00 0.00 0.00 0.00 0.01 0.01 0.01 0.02 0.02 0.02 0.04 0.05 0.04 0.03 0.05 0.08 0.08 0.04 0.04 0.04 0.05 0.05 0.06 0.06 0.08 0.08 0.08 0.08 0.09 0.08 0.07 0.07 0.06 0.06 0.05 0.05 0.05 0.04 0.03 0.03 0.02
0.01 0.00 0.00 0.00 0.00 0.00 0.00 0.01 0.01 0.01 0.01 0.02 0.04 0.04 0.03 0.03 0.03 0.05 0.06 0.03 0.03 0.05 0.06 0.07 0.07 0.07 0.08 0.07 0.07 0.09 0.09 0.06 0.05 0.04 0.05 0.06 0.06 0.05 0.05 0.04 0.03 0.03 0.03
0.00 0.00 0.00 0.00 0.00 0.01 0.01 0.01 0.01 0.02 0.02 0.03 0.03 0.03 0.03 0.04 0.03 0.03 0.03 0.02 0.03 0.05 0.06 0.08 0.07 0.06 0.07 0.06 0.06 0.07 0.06 0.04 0.03 0.03 0.03 0.05 0.06 0.06 0.05 0.04 0.03 0.04 0.04
0.00 0.00 0.00 0.00 0.01 0.01 0.01 0.01 0.01 0.03 0.03 0.03 0.03 0.03 0.03 0.04 0.03 0.02 0.02 0.02 0.02 0.03 0.04 0.06 0.04 0.04 0.04 0.04 0.04 0.03 0.03 0.03 0.02 0.02 0.02 0.02 0.03 0.05 0.06 0.05 0.04 0.03 0.04
0.00 0.00 0.00 0.01 0.01 0.01 0.01 0.02 0.04 0.03 0.03 0.03 0.03 0.02 0.02 0.02 0.03 0.02 0.02 0.03 0.03 0.03 0.03 0.04 0.03 0.02 0.02 0.02 0.03 0.02 0.02 0.02 0.02 0.02 0.01 0.01 0.03 0.04 0.05 0.05 0.03 0.02 0.03
0.00 0.00 0.00 0.01 0.01 0.02 0.02 0.04 0.04 0.02 0.02 0.03 0.03 0.01 0.01 0.01 0.01 0.02 0.02 0.03 0.03 0.02 0.03 0.03 0.02 0.02 0.02 0.02 0.02 0.01 0.01 0.01 0.01 0.01 0.01 0.02 0.03 0.02 0.02 0.02 0.03 0.03 0.03
0.00 0.00 0.00 0.00 0.01 0.01 0.02 0.02 0.02 0.02 0.01 0.02 0.01 0.01 0.01 0.00 0.01 0.01 0.02 0.02 0.02 0.03 0.03 0.03 0.02 0.02 0.01 0.01 0.01 0.00 0.00 0.00 0.00 0.00 0.01 0.01 0.01 0.02 0.01 0.01 0.02 0.03 0.03
0.00 0.00 0.00 0.00 0.01 0.02 0.01 0.01 0.01 0.01 0.01 0.02 0.01 0.01 0.01 0.01 0.01 0.01 0.01 0.01 0.02 0.02 0.02 0.02 0.03 0.02 0.01 0.01 0.01 0.01 0.01 0.01 0.01 0.01 0.01 0.01 0.01 0.01 0.01 0.01 0.01 0.02 0.01
0.00 0.00 0.00 0.00 0.00 0.01 0.01 0.00 0.01 0.00 0.00 0.01 0.01 0.01 0.01 0.01 0.01 0.02 0.01 0.01 0.02 0.02 0.02 0.01 0.01 0.01 0.00 0.01 0.01 0.01 0.01 0.01 0.01 0.01 0.01 0.01 0.01 0.02 0.02 0.02 0.01 0.01 0.01
0.00 0.00 0.00 0.00 0.00 0.00 0.01 0.01 0.01 0.01 0.01 0.01 0.01 0.01 0.01 0.01 0.01 0.01 0.01 0.01 0.01 0.01 0.01 0.01 0.01 0.01 0.01 0.01 0.01 0.01 0.01 0.01 0.01 0.01 0.01 0.01 0.02 0.02 0.02 0.02 0.02 0.01 0.01
0.00 0.00 0.00 0.00 0.00 0.00 0.00 0.01 0.00 0.00 0.01 0.01 0.01 0.01 0.01 0.01 0.01 0.01 0.01 0.01 0.01 0.01 0.01 0.01 0.01 0.01 0.01 0.01 0.01 0.01 0.01 0.01 0.01 0.01 0.01 0.02 0.02 0.02 0.02 0.02 0.02 0.01 0.01
0.01 0.01 0.00 0.01 0.01 0.01 0.00 0.00 0.00 0.00 0.01 0.01 0.01 0.01 0.01 0.01 0.01 0.01 0.01 0.01 0.01 0.01 0.01 0.01 0.01 0.01 0.01 0.01 0.01 0.01 0.01 0.01 0.01 0.01 0.01 0.01 0.01 0.01 0.02 0.02 0.01 0.01 0.01
0.02 0.01 0.01 0.01 0.01 0.01 0.02 0.01 0.01 0.01 0.00 0.00 0.00 0.00 0.00 0.00 0.01 0.01 0.01 0.01 0.00 0.00 0.01 0.01 0.01 0.01 0.01 0.01 0.01 0.01 0.01 0.01 0.01 0.01 0.01 0.01 0.01 0.01 0.01 0.01 0.01 0.01 0.01
0.01 0.01 0.01 0.00 0.00 0.01 0.01 0.01 0.01 0.01 0.01 0.00 0.00 0.00 0.00 0.01 0.01 0.01 0.01 0.01 0.00 0.00 0.01 0.01 0.01 0.01 0.01 0.01 0.01 0.01 0.01 0.01 0.01 0.01 0.01 0.01 0.00 0.00 0.00 0.00 0.01 0.00 0.01
0.01 0.01 0.00 0.00 0.00 0.01 0.01 0.02 0.01 0.01 0.00 0.00 0.00 0.00 0.00 0.01 0.01 0.01 0.01 0.00 0.00 0.00 0.00 0.00 0.01 0.01 0.02 0.02 0.02 0.01 0.00 0.00 0.00 0.00 0.00 0.00 0.00 0.00 0.00 0.00 0.00 0.00 0.00
0.02 0.01 0.01 0.01 0.01 0.01 0.01 0.01 0.02 0.01 0.01 0.01 0.01 0.01 0.01 0.01 0.01 0.01 0.01 0.00 0.00 0.00 0.00 0.00 0.00 0.01 0.02 0.02 0.01 0.02 0.01 0.00 0.00 0.00 0.00 0.00 0.00 0.00 0.00 0.00 0.00 0.00 0.00
0.03 0.03 0.02 0.01 0.02 0.02 0.01 0.01 0.01 0.01 0.01 0.01 0.01 0.01 0.01 0.01 0.01 0.01 0.01 0.00 0.00 0.00 0.00 0.00 0.00 0.00 0.01 0.02 0.02 0.01 0.01 0.01 0.01 0.00 0.00 0.00 0.00 0.00 0.00 0.00 0.00 0.00 0.00
MSLP
1020.20 1020.27 1020.28 1020.28 1020.31 1020.40 1020.57 1020.80 1021.09 1021.40 1021.67 1021.89 1022.03 1022.10 1022.11 1022.08 1022.05 1022.05 1022.08 1022.15 1022.25 1022.36 1022.46 1022.54 1022.59 1022.61 1022.61 1022.62 1022.62 1022.63 1022.64 1022.64 1022.63 1022.59 1022.50 1022.38 1022.22 1022.03 1021.80 1021.56 1021.30 1021.03 1020.74
1020.68 1020.75 1020.78 1020.82 1020.90 1021.03 1021.23 1021.51 1021.82 1022.14 1022.43 1022.67 1022.83 1022.91 1022.93 1022.91 1022.88 1022.87 1022.88 1022.92 1022.98 1023.06 1023.12 1023.17 1023.20 1023.20 1023.18 1023.16 1023.14 1023.11 1023.10 1023.08 1023.05 1023.00 1022.92 1022.80 1022.66 1022.48 1022.28 1022.05 1021.79 1021.52 1021.23
1021.08 1021.16 1021.24 1021.34 1021.47 1021.66 1021.91 1022.21 1022.55 1022.88 1023.18 1023.43 1023.60 1023.70 1023.73 1023.73 1023.70 1023.68 1023.66 1023.67 1023.69 1023.72 1023.75 1023.76 1023.76 1023.73 1023.70 1023.66 1023.61 1023.57 1023.52 1023.48 1023.43 1023.36 1023.27 1023.16 1023.02 1022.86 1022.67 1022.46 1022.23 1021.97 1021.70
1021.41 1021.53 1021.66 1021.82 1022.02 1022.26 1022.56 1022.89 1023.23 1023.56 1023.86 1024.10 1024.28 1024.39 1024.44 1024.45 1024.43 1024.40 1024.37 1024.35 1024.33 1024.32 1024.30 1024.28 1024.25 1024.21 1024.16 1024.11 1024.06 1024.00 1023.93 1023.86 1023.78 1023.69 1023.59 1023.47 1023.34 1023.18 1023.01 1022.82 1022.60 1022.36 1022.11
1021.70 1021.85 1022.03 1022.25 1022.52 1022.81 1023.13 1023.47 1023.80 1024.11 1024.39 1024.62 1024.80 1024.92 1024.99 1025.02 1025.02 1024.99 1024.95 1024.91 1024.86 1024.82 1024.77 1024.72 1024.68 1024.64 1024.59 1024.55 1024.49 1024.42 1024.34 1024.25 1024.15 1024.04 1023.91 1023.78 1023.64 1023.48 1023.31 1023.13 1022.92 1022.70 1022.46
1021.97 1022.15 1022.38 1022.64 1022.95 1023.27 1023.60 1023.92 1024.23 1024.50 1024.74 1024.94 1025.11 1025.24 1025.33 1025.39 1025.42 1025.42 1025.39 1025.35 1025.29 1025.22 1025.16 1025.11 1025.07 1025.04 1025.01 1024.97 1024.93 1024.86 1024.78 1024.67 1024.55 1024.41 1024.26 1024.11 1023.95 1023.78 1023.61 1023.42 1023.22 1023.00 1022.76
1022.27 1022.45 1022.70 1022.99 1023.31 1023.63 1023.94 1024.23 1024.48 1024.70 1024.89 1025.06 1025.22 1025.35 1025.48 1025.58 1025.65 1025.68 1025.69 1025.66 1025.61 1025.56 1025.50 1025.46 1025.43 1025.42 1025.41 1025.40 1025.37 1025.32 1025.23 1025.12 1024.98 1024.82 1024.65 1024.47 1024.29 1024.11 1023.92 1023.72 1023.51 1023.27 1023.02
1022.59 1022.76 1023.00 1023.29 1023.59 1023.89 1024.16 1024.39 1024.58 1024.74 1024.88 1025.02 1025.16 1025.31 1025.47 1025.61 1025.74 1025.82 1025.87 1025.88 1025.86 1025.83 1025.80 1025.78 1025.78 1025.79 1025.81 1025.83 1025.82 1025.77 1025.69 1025.57 1025.42 1025.24 1025.06 1024.86 1024.67 1024.47 1024.27 1024.04 1023.80 1023.54 1023.26
1022.94 1023.08 1023.29 1023.55 1023.82 1024.07 1024.29 1024.45 1024.58 1024.68 1024.77 1024.88 1025.01 1025.18 1025.36 1025.56 1025.73 1025.87 1025.97 1026.03 1026.05 1026.05 1026.05 1026.06 1026.09 1026.13 1026.18 1026.21 1026.22 1026.19 1026.11 1025.99 1025.83 1025.65 1025.45 1025.26 1025.06 1024.85 1024.63 1024.39 1024.12 1023.82 1023.51
1023.30 1023.40 1023.57 1023.78 1024.00 1024.20 1024.36 1024.47 1024.54 1024.58 1024.64 1024.72 1024.85 1025.03 1025.24 1025.47 1025.69 1025.88 1026.02 1026.12 1026.18 1026.21 1026.24 1026.28 1026.34 1026.41 1026.48 1026.53 1026.55 1026.52 1026.44 1026.31 1026.16 1025.98 1025.79 1025.60 1025.42 1025.22 1025.00 1024.75 1024.46 1024.13 1023.78
1023.64 1023.70 1023.82 1023.98 1024.16 1024.31 1024.42 1024.49 1024.51 1024.53 1024.56 1024.63 1024.76 1024.94 1025.17 1025.42 1025.66 1025.87 1026.04 1026.16 1026.24 1026.31 1026.36 1026.43 1026.51 1026.60 1026.68 1026.74 1026.76 1026.73 1026.65 1026.52 1026.37 1026.20 1026.03 1025.87 1025.71 1025.54 1025.34 1025.10 1024.81 1024.47 1024.08
1023.92 1023.95 1024.04 1024.17 1024.30 1024.42 1024.51 1024.55 1024.56 1024.56 1024.58 1024.64 1024.76 1024.95 1025.17 1025.41 1025.65 1025.87 1026.04 1026.16 1026.26 1026.33 1026.41 1026.49 1026.59 1026.69 1026.78 1026.84 1026.86 1026.82 1026.73 1026.61 1026.46 1026.31 1026.16 1026.04 1025.92 1025.79 1025.63 1025.42 1025.15 1024.81 1024.41
1024.13 1024.15 1024.22 1024.33 1024.44 1024.55 1024.62 1024.66 1024.67 1024.68 1024.70 1024.77 1024.88 1025.05 1025.26 1025.48 1025.69 1025.88 1026.02 1026.14 1026.23 1026.31 1026.39 1026.48 1026.59 1026.70 1026.80 1026.85 1026.87 1026.82 1026.72 1026.60 1026.45 1026.31 1026.20 1026.11 1026.03 1025.95 1025.85 1025.69 1025.46 1025.14 1024.76
1024.27 1024.30 1024.37 1024.47 1024.59 1024.69 1024.77 1024.82 1024.85 1024.87 1024.91 1024.98 1025.09 1025.24 1025.42 1025.60 1025.77 1025.91 1026.02 1026.11 1026.18 1026.25 1026.34 1026.45 1026.57 1026.68 1026.78 1026.84 1026.85 1026.79 1026.68 1026.55 1026.40 1026.27 1026.18 1026.12 1026.08 1026.05 1026.00 1025.90 1025.71 1025.45 1025.09
1024.37 1024.41 1024.50 1024.61 1024.73 1024.84 1024.94 1025.01 1025.06 1025.11 1025.16 1025.24 1025.35 1025.48 1025.62 1025.76 1025.88 1025.97 1026.04 1026.10 1026.15 1026.22 1026.31 1026.43 1026.56 1026.70 1026.81 1026.87 1026.87 1026.80 1026.69 1026.54 1026.38 1026.25 1026.16 1026.11 1026.11 1026.11 1026.11 1026.05 1025.92 1025.69 1025.39
1024.47 1024.53 1024.63 1024.74 1024.87 1024.99 1025.10 1025.19 1025.26 1025.33 1025.41 1025.50 1025.61 1025.72 1025.83 1025.93 1026.01 1026.07 1026.10 1026.13 1026.17 1026.24 1026.34 1026.48 1026.64 1026.79 1026.91 1026.98 1026.98 1026.92 1026.79 1026.62 1026.45 1026.31 1026.21 1026.16 1026.15 1026.17 1026.18 1026.15 1026.06 1025.88 1025.61
1024.59 1024.68 1024.78 1024.90 1025.02 1025.13 1025.23 1025.33 1025.41 1025.50 1025.59 1025.70 1025.81 1025.92 1026.02 1026.10 1026.15 1026.18 1026.19 1026.21 1026.25 1026.33 1026.45 1026.61 1026.79 1026.97 1027.12 1027.20 1027.22 1027.15 1027.02 1026.84 1026.65 1026.48 1026.35 1026.28 1026.25 1026.24 1026.25 1026.22 1026.14 1025.98 1025.75
1024.79 1024.88 1024.97 1025.07 1025.17 1025.26 1025.34 1025.42 1025.50 1025.59 1025.69 1025.80 1025.92 1026.04 1026.14 1026.21 1026.26 1026.28 1026.30 1026.32 1026.37 1026.46 1026.60 1026.79 1027.00 1027.21 1027.38 1027.49 1027.52 1027.47 1027.34 1027.16 1026.95 1026.76 1026.60 1026.48 1026.41 1026.36 1026.33 1026.28 1026.18 1026.02 1025.79
1025.05 1025.14 1025.22 1025.28 1025.34 1025.38 1025.43 1025.47 1025.53 1025.60 1025.70 1025.82 1025.95 1026.07 1026.18 1026.26 1026.32 1026.35 1026.37 1026.40 1026.47 1026.58 1026.74 1026.95 1027.19 1027.43 1027.63 1027.77 1027.83 1027.80 1027.69 1027.52 1027.31 1027.10 1026.91 1026.75 1026.62 1026.52 1026.43 1026.33 1026.19 1026.00 1025.76
1025.39 1025.46 1025.51 1025.53 1025.53 1025.52 1025.51 1025.50 1025.52 1025.56 1025.65 1025.76 1025.89 1026.02 1026.14 1026.23 1026.30 1026.34 1026.37 1026.41 1026.49 1026.61 1026.79 1027.02 1027.28 1027.54 1027.77 1027.95 1028.04 1028.05 1027.98 1027.84 1027.65 1027.44 1027.23 1027.04 1026.87 1026.71 1026.55 1026.39 1026.19 1025.95 1025.68
1025.78 1025.83 1025.85 1025.82 1025.77 1025.69 1025.61 1025.55 1025.51 1025.52 1025.57 1025.67 1025.78 1025.91 1026.03 1026.12 1026.19 1026.23 1026.26 1026.31 1026.38 1026.50 1026.68 1026.91 1027.18 1027.46 1027.72 1027.93 1028.08 1028.14 1028.12 1028.03 1027.88 1027.70 1027.50 1027.30 1027.10 1026.90 1026.68 1026.45 1026.20 1025.91 1025.59
1026.21 1026.24 1026.23 1026.16 1026.05 1025.92 1025.78 1025.65 1025.56 1025.52 1025.53 1025.59 1025.68 1025.78 1025.88 1025.95 1026.00 1026.02 1026.04 1026.06 1026.11 1026.21 1026.37 1026.59 1026.86 1027.15 1027.44 1027.69 1027.89 1028.02 1028.07 1028.05 1027.97 1027.84 1027.68 1027.49 1027.29 1027.06 1026.81 1026.53 1026.22 1025.88 1025.52
1026.64 1026.67 1026.64 1026.55 1026.40 1026.22 1026.03 1025.85 1025.70 1025.61 1025.56 1025.57 1025.61 1025.67 1025.72 1025.76 1025.76 1025.74 1025.71 1025.70 1025.71 1025.77 1025.90 1026.09 1026.34 1026.64 1026.94 1027.24 1027.49 1027.69 1027.82 1027.89 1027.89 1027.83 1027.73 1027.59 1027.40 1027.18 1026.92 1026.62 1026.28 1025.90 1025.50
1027.06 1027.10 1027.07 1026.97 1026.80 1026.60 1026.37 1026.15 1025.95 1025.80 1025.71 1025.65 1025.63 1025.62 1025.61 1025.58 1025.52 1025.43 1025.34 1025.26 1025.21 1025.22 1025.31 1025.46 1025.70 1025.98 1026.30 1026.62 1026.93 1027.20 1027.41 1027.56 1027.65 1027.68 1027.66 1027.57 1027.44 1027.24 1026.99 1026.69 1026.34 1025.95 1025.53
1027.46 1027.52 1027.50 1027.40 1027.24 1027.02 1026.78 1026.53 1026.30 1026.10 1025.95 1025.83 1025.74 1025.65 1025.56 1025.44 1025.30 1025.14 1024.97 1024.82 1024.70 1024.65 1024.68 1024.80 1025.00 1025.28 1025.60 1025.95 1026.29 1026.62 1026.90 1027.13 1027.31 1027.42 1027.47 1027.46 1027.38 1027.23 1027.01 1026.73 1026.39 1026.01 1025.59
1027.81 1027.89 1027.89 1027.81 1027.65 1027.44 1027.19 1026.93 1026.68 1026.44 1026.24 1026.06 1025.90 1025.74 1025.56 1025.36 1025.13 1024.89 1024.64 1024.41 1024.23 1024.13 1024.11 1024.18 1024.35 1024.61 1024.93 1025.29 1025.66 1026.03 1026.36 1026.66 1026.90 1027.08 1027.20 1027.25 1027.23 1027.14 1026.97 1026.72 1026.41 1026.05 1025.66
Thickness
5711 5710 5709 5708 5708 5707 5707 5706 5705 5705 5705 5704 5704 5704 5703 5703 5704 5704 5704 5706 5706 5707 5707 5708 5708 5708 5708 5708 5708 5709 5709 5708 5708 5708 5708 5708 5708 5708 5708 5708 5708 5708 5708
5707 5706 5705 5704 5703 5703 5702 5701 5701 5700 5700 5699 5699 5698 5698 5698 5698 5698 5699 5699 5700 5701 5702 5703 5703 5703 5703 5704 5704 5704 5704 5704 5703 5703 5703 5702 5702 5702 5702 5702 5702 5702 5703
5704 5703 5701 5700 5699 5699 5698 5697 5697 5696 5695 5694 5693 5693 5693 5692 5692 5692 5693 5694 5694 5695 5696 5697 5698 5698 5698 5699 5699 5700 5699 5699 5698 5698 5697 5697 5697 5697 5696 5696 5697 5697 5697
5701 5699 5698 5697 5696 5695 5695 5693 5692 5691 5689 5688 5687 5687 5687 5687 5687 5687 5687 5688 5689 5689 5690 5691 5692 5692 5693 5693 5694 5694 5694 5693 5693 5693 5692 5692 5692 5692 5691 5691 5691 5691 5691
5697 5696 5695 5694 5693 5692 5691 5690 5688 5687 5684 5683 5683 5682 5681 5681 5681 5682 5682 5682 5683 5684 5684 5685 5686 5686 5687 5688 5688 5689 5688 5688 5688 5688 5687 5687 5687 5686 5686 5685 5686 5686 5686
5694 5693 5692 5690 5690 5688 5686 5685 5684 5682 5681 5680 5679 5677 5676 5676 5676 5676 5676 5676 5677 5678 5678 5679 5680 5680 5681 5682 5682 5683 5683 5683 5682 5682 5682 5682 5681 5681 5680 5680 5680 5680 5680
5691 5690 5689 5687 5686 5684 5683 5682 5680 5678 5676 5676 5674 5671 5671 5671 5671 5671 5671 5671 5672 5672 5673 5673 5674 5674 5675 5676 5676 5677 5677 5677 5677 5677 5676 5676 5675 5675 5675 5675 5675 5674 5674
5688 5688 5686 5684 5683 5681 5679 5678 5677 5675 5673 5673 5670 5666 5663 5663 5664 5666 5666 5666 5666 5667 5667 5668 5668 5669 5669 5670 5671 5671 5671 5671 5671 5671 5671 5670 5670 5670 5669 5669 5669 5668 5668
5686 5685 5684 5682 5680 5679 5676 5675 5675 5673 5670 5669 5669 5666 5660 5656 5656 5659 5660 5661 5662 5662 5662 5663 5663 5664 5664 5665 5665 5665 5666 5665 5666 5666 5666 5665 5665 5665 5664 5663 5663 5662 5662
5683 5683 5681 5680 5678 5677 5675 5674 5673 5672 5670 5666 5665 5664 5663 5660 5655 5652 5655 5656 5658 5657 5658 5659 5659 5659 5659 5660 5660 5660 5661 5661 5661 5661 5661 5660 5660 5659 5658 5657 5656 5656 5656
5681 5680 5679 5678 5677 5675 5673 5672 5671 5669 5668 5666 5663 5662 5659 5657 5655 5652 5649 5651 5652 5653 5653 5654 5655 5655 5655 5655 5655 5655 5655 5655 5655 5655 5654 5654 5653 5653 5652 5651 5651 5650 5650
5678 5678 5677 5676 5675 5673 5672 5670 5669 5667 5666 5664 5662 5661 5659 5656 5653 5651 5648 5647 5647 5648 5649 5650 5650 5650 5650 5651 5651 5651 5650 5650 5649 5648 5648 5648 5647 5646 5646 5645 5644 5644 5644
5675 5675 5675 5674 5673 5672 5670 5669 5667 5665 5664 5662 5660 5659 5658 5656 5655 5652 5649 5645 5644 5644 5645 5646 5646 5646 5646 5647 5646 5646 5645 5644 5643 5643 5642 5641 5641 5640 5639 5638 5638 5638 5638
5675 5675 5674 5672 5671 5670 5668 5666 5664 5663 5662 5660 5659 5658 5656 5655 5654 5652 5649 5646 5642 5641 5641 5641 5642 5643 5642 5642 5642 5641 5640 5639 5638 5637 5636 5635 5635 5634 5633 5632 5632 5632 5632
5674 5673 5672 5670 5669 5667 5666 5664 5662 5660 5660 5659 5657 5656 5654 5653 5652 5651 5650 5648 5644 5639 5637 5637 5637 5638 5638 5638 5637 5636 5635 5634 5633 5632 5631 5630 5629 5628 5627 5626 5625 5625 5625
5672 5671 5669 5668 5667 5665 5664 5662 5660 5659 5657 5656 5655 5654 5653 5651 5650 5649 5648 5647 5645 5641 5635 5634 5633 5634 5634 5634 5632 5631 5630 5629 5628 5627 5626 5625 5624 5623 5622 5621 5620 5620 5619
5670 5669 5667 5666 5664 5663 5661 5659 5658 5657 5655 5654 5653 5652 5650 5649 5648 5646 5645 5644 5642 5640 5635 5631 5630 5630 5629 5628 5628 5627 5625 5624 5623 5622 5621 5620 5619 5618 5617 5616 5615 5614 5612
5668 5667 5666 5664 5662 5661 5659 5657 5656 5654 5653 5651 5650 5649 5648 5647 5645 5644 5642 5641 5639 5637 5634 5629 5626 5625 5624 5624 5623 5622 5621 5620 5618 5617 5616 5615 5614 5613 5612 5610 5609 5608 5606
5666 5665 5663 5661 5660 5659 5658 5656 5654 5652 5651 5649 5648 5647 5646 5644 5642 5640 5639 5637 5635 5634 5631 5627 5623 5621 5620 5619 5618 5616 5616 5614 5613 5612 5611 5610 5609 5608 5606 5605 5603 5602 5600
5663 5662 5661 5660 5658 5657 5655 5654 5652 5650 5648 5647 5646 5645 5643 5642 5640 5638 5637 5634 5632 5629 5626 5623 5620 5617 5615 5614 5613 5611 5609 5608 5608 5607 5606 5605 5604 5602 5601 5599 5598 5595 5593
5660 5659 5658 5657 5656 5654 5653 5651 5649 5647 5645 5643 5642 5641 5641 5640 5639 5637 5635 5631 5629 5625 5622 5619 5615 5613 5610 5609 5608 5607 5605 5603 5602 5601 5600 5598 5597 5596 5594 5593 5591 5589 5587
5656 5655 5654 5653 5652 5652 5651 5649 5647 5644 5642 5640 5638 5637 5637 5636 5635 5634 5632 5630 5628 5624 5619 5616 5612 5610 5608 5606 5604 5603 5600 5598 5596 5596 5594 5592 5591 5589 5588 5586 5584 5583 5580
5651 5650 5649 5648 5647 5647 5647 5646 5644 5641 5638 5636 5634 5633 5632 5632 5630 5629 5627 5626 5623 5621 5619 5616 5611 5608 5606 5604 5601 5598 5596 5594 5591 5590 5588 5586 5584 5583 5581 5580 5578 5576 5574
5646 5646 5645 5644 5643 5643 5642 5641 5639 5636 5634 5632 5630 5629 5627 5626 5625 5623 5622 5619 5617 5615 5614 5612 5610 5608 5605 5603 5600 5597 5593 5589 5587 5584 5582 5580 5578 5576 5575 5573 5572 5570 5567
5641 5641 5641 5640 5639 5639 5638 5637 5635 5632 5629 5628 5627 5626 5624 5622 5622 5619 5617 5613 5611 5610 5609 5607 5605 5603 5601 5599 5596 5591 5587 5584 5581 5579 5576 5574 5572 5570 5569 5567 5566 5563 5561
5637 5637 5636 5635 5635 5634 5634 5633 5631 5628 5624 5623 5622 5621 5621 5619 5618 5615 5611 5608 5605 5604 5602 5601 5598 5597 5595 5592 5590 5587 5584 5579 5575 5572 5571 5567 5565 5562 5562 5561 5558 5556 5553